Location: ????????
(55.7667°N, 37.4833°E)
Time: 03:43:13
(UTC+00:00)

ALOS 2 - Pass Details

Date: 19 May 2025
Orbit: 630 x 632 km, 97.9° (Epoch: 15 June)

Event Time Altitude Azimuth Distance (km) Brightness Sun altitude
Exits shadow 20:41:34 22° 165° (SSE) 1,395 3.7 -13.7°
Maximum altitude 20:44:25 87° 255° (WSW) 642 2.6 -13.7°
Drops below altitude 10° 20:48:51 10° 344° (NNW) 2,029 6.6 -13.8°
Sets 20:51:04 0° 345° (NNW) 2,941 8.0 -13.9°
